This is the latest recevied weather packets stored in our database for station/object IZ1RFL-3. If no packets are shown the sender has not sent any weather packets the latest 10 day(s).
| Time | Temp. | Humidity | Pressure | Rain* | Wind** | Luminosity | Snow |
|---|---|---|---|---|---|---|---|
| 1778129167 | 12.78° C | 80% | 1013.5 hPa | - | - | - | - |
| 1778128267 | 12.78° C | 80% | 1013.4 hPa | - | - | - | - |
| 1778127367 | 12.78° C | 80% | 1013.2 hPa | - | - | - | - |
| 1778126467 | 12.78° C | 79% | 1013.4 hPa | - | - | - | - |
| 1778125567 | 12.78° C | 81% | 1013.3 hPa | - | - | - | - |
| 1778124667 | 12.22° C | 81% | 1013.1 hPa | - | - | - | - |
| 1778123767 | 12.78° C | 80% | 1013 hPa | - | - | - | - |
| 1778122867 | 12.78° C | 80% | 1012.9 hPa | - | - | - | - |
| 1778121967 | 12.78° C | 80% | 1012.9 hPa | - | - | - | - |
| 1778121067 | 13.33° C | 79% | 1013 hPa | - | - | - | - |
| 1778120167 | 13.33° C | 79% | 1012.9 hPa | - | - | - | - |
| 1778119267 | 12.78° C | 82% | 1012.8 hPa | - | - | - | - |
| 1778118367 | 12.78° C | 81% | 1012.6 hPa | - | - | - | - |
| 1778117467 | 13.33° C | 80% | 1012.4 hPa | - | - | - | - |
| 1778116567 | 13.33° C | 80% | 1012.4 hPa | - | - | - | - |
| 1778115667 | 13.33° C | 81% | 1012.3 hPa | - | - | - | - |
| 1778114767 | 13.89° C | 81% | 1012.4 hPa | - | - | - | - |
| 1778113867 | 13.89° C | 80% | 1012.4 hPa | - | - | - | - |
| 1778112967 | 13.89° C | 79% | 1012.4 hPa | - | - | - | - |
| 1778112067 | 13.89° C | 80% | 1012.3 hPa | - | - | - | - |
| 1778111167 | 13.89° C | 80% | 1012.1 hPa | - | - | - | - |
| 1778110267 | 13.89° C | 80% | 1012.1 hPa | - | - | - | - |
| 1778109367 | 13.89° C | 80% | 1012.2 hPa | - | - | - | - |
| 1778108467 | 13.89° C | 78% | 1012.1 hPa | - | - | - | - |
| 1778107567 | 14.44° C | 79% | 1012 hPa | - | - | - | - |
* Rain since midnight (hover to see other rain measurements)
** Current wind speed in m/s (hover to see current wind gust speed)